Wind_Speed
7 7 6 5 4 4 4 4 4 5 5 5 6 6 6 6 7 7 7 7 7 7 7 7 7 7 7 7 7 6 7 6 6 6 6 6 6 6 6 5 5 5 5
5 5 5 4 3 3 3 3 3 3 4 4 5 5 5 6 6 6 7 7 7 7 7 7 7 7 7 7 7 6 6 6 6 6 6 5 5 5 6 6 5 6 6
4 4 4 3 3 2 2 2 2 3 3 3 4 4 4 5 5 6 6 6 6 7 7 7 7 7 7 7 6 6 6 6 5 6 6 5 5 5 5 5 5 6 6
4 3 3 3 2 2 1 2 2 2 2 2 3 3 3 4 4 5 5 6 6 6 6 7 7 7 6 6 6 6 6 5 5 5 5 5 5 5 5 5 6 6 6
3 3 3 2 2 2 1 2 1 1 1 2 2 3 3 3 3 4 5 5 5 6 6 6 6 6 6 6 6 5 5 5 5 5 5 5 5 5 5 5 5 5 5
3 3 2 2 2 2 2 1 1 1 1 2 2 2 3 3 3 4 4 5 5 5 6 6 6 6 5 5 5 5 5 5 6 6 5 5 5 5 5 5 5 5 4
2 2 2 2 2 2 1 1 1 1 1 1 2 2 2 2 3 4 4 4 4 5 5 6 5 5 5 5 5 5 5 5 6 6 5 5 5 5 5 5 5 4 4
2 2 2 1 1 1 1 1 1 1 1 1 2 2 2 2 3 4 4 3 4 5 5 5 5 5 5 5 5 5 5 6 6 5 5 5 5 5 5 4 4 4 4
1 2 1 1 1 2 2 1 1 1 0 1 1 2 2 3 3 3 4 4 4 5 5 5 5 5 5 6 6 5 5 6 6 5 5 5 5 4 5 4 4 4 4
2 2 2 2 2 2 2 2 2 2 1 1 0 1 2 2 2 3 3 3 4 4 4 4 5 5 5 5 5 5 5 5 5 5 5 5 5 5 4 4 4 4 3
2 3 3 3 3 3 3 3 2 2 2 2 1 1 1 1 1 2 2 3 3 3 4 4 5 5 5 5 5 5 5 5 5 5 5 5 5 5 4 4 4 3 3
3 3 3 4 4 4 4 3 3 2 2 2 2 1 1 0 1 1 1 2 3 3 4 4 4 5 4 4 4 5 5 4 5 5 5 5 4 4 5 4 4 3 3
4 4 4 4 5 5 5 4 4 3 3 3 3 2 1 1 1 1 1 1 2 3 3 4 4 4 4 4 4 4 4 4 5 4 4 4 4 4 4 3 4 3 3
5 5 6 6 6 6 5 4 4 4 3 2 2 1 1 1 0 0 1 2 2 2 3 3 4 3 3 3 3 4 4 4 4 4 4 4 4 3 3 3 3 3 3
6 6 6 6 6 6 6 5 5 4 4 3 2 1 1 1 1 1 1 1 1 1 2 3 2 2 2 2 2 2 3 3 3 3 3 3 3 3 3 3 3 2 2
7 7 7 7 7 7 7 6 5 4 3 3 2 1 2 2 1 1 1 1 1 1 1 2 2 1 1 1 1 1 1 2 2 2 2 2 2 2 2 2 2 2 2
8 8 7 7 7 7 7 6 5 4 3 3 2 2 2 2 2 2 2 2 2 2 2 2 1 1 1 1 1 1 0 1 1 2 2 2 2 1 1 2 2 1 1
10 10 9 8 8 7 7 6 5 4 3 4 3 3 3 3 3 3 2 3 3 3 3 3 3 2 2 2 2 1 1 1 1 1 2 2 2 1 1 2 2 2 1
11 10 10 10 9 8 7 5 5 4 4 4 4 4 4 4 4 4 4 4 4 4 4 4 4 3 4 4 3 3 2 2 1 2 2 2 2 2 2 2 2 2 2
12 11 10 10 10 9 7 6 5 5 5 5 5 5 5 5 5 5 5 4 4 5 5 5 5 5 5 5 4 4 4 4 4 4 4 4 4 4 3 3 3 3 3
12 12 11 10 10 9 8 7 6 6 6 6 6 6 5 5 5 5 5 5 5 6 6 6 6 6 6 6 6 6 6 6 6 6 6 5 5 5 5 5 5 5 5
14 13 12 11 10 10 10 8 7 7 7 6 6 6 7 6 7 7 6 7 7 7 7 7 8 8 8 8 8 8 8 8 8 8 8 7 7 7 7 8 7 7 7
13 13 12 12 11 10 10 10 9 9 8 8 8 7 8 8 8 7 7 7 8 8 9 10 10 10 10 10 10 10 11 11 10 10 10 10 10 10 10 10 9 10 10
14 14 13 13 12 11 11 11 10 10 9 9 7 7 7 8 8 8 8 9 9 10 10 10 11 11 11 12 12 13 13 13 13 13 13 13 13 12 11 12 12 12 12
14 14 13 13 12 12 12 12 10 9 9 8 7 7 7 7 8 8 8 9 10 10 11 12 12 12 12 13 13 14 14 15 15 15 15 15 15 15 14 14 14 14 14
15 15 14 14 13 13 12 11 10 9 8 8 8 8 9 9 9 9 10 10 11 11 12 12 13 13 13 14 15 16 16 16 16 17 17 17 17 18 18 17 17 18 17
Wind_Direction
92 94 94 93 90 88 90 94 99 102 105 106 108 107 108 106 102 100 101 102 102 101 99 94 90 87 86 83 78 74 75 75 69 74 76 73 70 69 70 74 79 87 83
92 94 94 92 86 84 88 93 100 100 100 106 109 108 108 108 105 104 104 105 104 102 99 95 92 88 86 83 79 76 75 73 70 71 70 68 67 67 69 73 79 79 81
91 88 90 92 85 82 81 85 96 93 90 104 110 112 113 109 109 107 108 108 107 105 100 97 95 91 89 87 82 77 75 76 71 70 68 67 68 68 68 70 75 72 79
90 87 88 82 74 69 65 73 80 81 85 100 108 110 110 110 113 107 107 108 107 105 101 99 96 94 91 87 83 78 73 74 70 68 71 69 68 69 64 71 77 78 80
90 89 82 71 58 45 40 52 58 62 82 90 100 107 106 109 112 112 108 107 105 102 102 100 95 92 89 85 83 79 78 76 68 66 73 72 69 71 67 76 75 76 78
83 88 79 66 50 38 27 39 40 41 67 82 91 92 99 101 107 113 113 108 106 105 104 101 96 90 86 86 83 80 80 79 71 71 72 72 70 70 72 75 72 71 73
97 94 82 64 44 23 14 17 28 28 54 68 70 74 86 89 98 106 109 108 107 107 105 102 99 92 89 85 84 84 79 75 73 73 69 70 71 70 76 76 73 68 70
101 96 75 49 15 344 329 340 29 38 50 56 56 51 69 84 95 102 102 99 104 104 101 104 105 99 94 88 91 91 82 75 76 73 70 69 68 68 76 75 74 68 67
93 83 71 31 358 330 310 309 306 316 3 43 62 55 64 78 86 90 93 98 102 103 101 103 105 101 96 94 92 89 80 75 75 75 72 66 65 67 77 79 75 71 74
63 54 42 13 349 334 307 308 310 290 283 295 22 35 49 73 83 89 95 99 101 105 106 105 102 101 98 97 91 84 78 74 74 73 72 66 66 68 75 80 75 68 77
53 40 33 18 2 353 330 321 308 295 280 278 287 320 25 66 95 101 99 106 107 110 109 108 105 103 103 99 92 85 81 74 67 67 65 65 68 69 71 73 71 67 67
31 28 24 18 6 358 349 346 325 305 301 298 302 293 342 127 140 120 100 108 117 116 112 105 106 105 103 96 88 84 80 71 65 59 62 66 69 74 75 71 62 57 54
22 21 20 12 3 355 351 346 333 324 313 302 296 280 268 227 135 102 96 116 119 120 111 110 113 106 108 101 88 79 80 73 68 63 62 69 72 72 72 76 61 56 55
17 12 8 1 355 350 343 336 328 322 315 306 301 297 299 297 18 127 140 144 134 129 128 127 127 114 111 98 84 84 81 73 61 61 61 66 68 70 76 76 64 57 49
15 7 359 349 349 345 341 330 318 314 313 314 309 294 324 329 300 282 171 159 159 141 131 138 140 127 111 99 101 97 80 71 62 58 58 60 66 72 71 67 60 50 47
10 4 355 345 341 335 332 328 313 310 310 303 294 282 298 310 307 261 248 210 205 203 175 161 156 153 121 99 116 100 73 63 53 44 39 47 48 44 42 48 45 41 38
2 356 352 345 340 336 328 323 318 314 301 290 281 281 286 287 288 282 266 243 235 225 218 206 195 207 206 208 197 200 77 49 31 28 18 20 24 21 19 16 11 17 25
1 356 355 349 346 343 336 326 321 317 302 290 275 277 287 289 281 275 274 258 244 235 236 230 226 236 251 246 245 252 259 282 331 339 342 344 346 348 352 343 334 333 330
1 359 355 350 348 344 341 335 326 320 302 297 284 276 284 294 289 272 271 267 255 246 251 246 241 252 258 258 259 267 269 279 293 299 300 300 303 307 314 317 318 314 302
5 3 358 355 353 349 343 334 322 319 308 297 288 277 276 283 286 275 269 269 263 258 259 257 257 261 264 262 266 273 275 279 280 288 294 292 294 293 294 294 299 298 291
360 358 356 354 353 351 346 334 316 309 309 299 287 276 271 271 277 275 273 272 272 268 263 258 262 265 266 267 268 271 276 279 279 281 281 278 282 283 287 286 284 286 285
354 354 354 349 350 347 343 335 324 313 304 299 292 278 268 267 272 271 266 266 269 269 268 265 265 266 266 267 268 270 274 279 280 282 280 274 276 279 280 280 279 279 280
349 348 348 347 345 343 339 332 327 319 310 299 292 282 270 264 267 267 267 270 270 269 270 267 268 269 270 269 269 271 274 276 276 276 277 273 274 277 277 276 276 277 278
345 343 342 340 340 338 333 326 320 314 308 297 289 282 276 269 267 269 271 271 273 277 277 275 273 273 273 274 273 272 274 275 275 274 275 274 275 276 275 275 274 278 278
340 339 335 334 331 330 331 327 318 312 306 296 291 289 288 285 278 275 276 277 281 281 279 277 278 279 277 276 275 274 273 273 272 274 275 275 275 274 274 276 277 278 275
334 336 333 328 326 325 327 324 319 313 305 299 295 290 289 289 286 285 283 283 285 284 280 279 279 280 282 279 276 275 276 274 273 273 275 275 274 273 272 274 276 277 276
Height
5894 5894 5894 5895 5895 5895 5895 5895 5894 5894 5894 5894 5894 5893 5893 5893 5893 5892 5893 5893 5893 5893 5893 5893 5893 5893 5894 5894 5894 5894 5894 5894 5894 5894 5894 5895 5895 5895 5895 5895 5895 5895 5896
5895 5895 5896 5896 5896 5896 5896 5896 5896 5896 5895 5895 5895 5895 5894 5894 5894 5894 5894 5894 5894 5894 5894 5894 5895 5895 5895 5895 5895 5895 5895 5895 5895 5895 5895 5896 5896 5896 5896 5896 5896 5897 5897
5896 5896 5897 5897 5897 5898 5898 5897 5897 5897 5896 5896 5896 5896 5896 5896 5895 5895 5895 5895 5895 5895 5895 5896 5896 5896 5896 5896 5896 5896 5896 5896 5896 5896 5896 5897 5897 5897 5897 5897 5898 5898 5898
5897 5898 5898 5898 5899 5899 5899 5899 5898 5898 5898 5897 5897 5897 5897 5897 5897 5896 5896 5896 5896 5896 5896 5897 5897 5897 5897 5897 5897 5897 5897 5897 5897 5897 5897 5898 5898 5898 5898 5898 5899 5899 5899
5898 5899 5899 5899 5900 5900 5900 5900 5899 5899 5899 5898 5898 5898 5898 5898 5898 5897 5898 5897 5898 5898 5898 5898 5898 5898 5898 5898 5898 5898 5898 5898 5898 5898 5898 5899 5899 5899 5899 5899 5899 5900 5900
5899 5899 5900 5900 5900 5900 5901 5900 5900 5900 5900 5899 5899 5899 5899 5899 5898 5898 5899 5899 5899 5899 5899 5899 5899 5899 5899 5899 5899 5899 5899 5899 5899 5899 5899 5900 5900 5900 5900 5900 5900 5901 5901
5900 5900 5900 5901 5901 5901 5901 5901 5901 5901 5900 5900 5900 5900 5900 5900 5899 5899 5900 5900 5900 5900 5900 5900 5900 5900 5900 5900 5900 5900 5900 5900 5900 5900 5900 5900 5900 5900 5901 5901 5901 5902 5902
5901 5901 5901 5902 5902 5902 5902 5902 5901 5901 5901 5901 5901 5901 5901 5901 5900 5900 5901 5901 5901 5901 5901 5901 5901 5901 5901 5901 5901 5901 5901 5901 5901 5901 5901 5901 5901 5902 5902 5902 5902 5902 5903
5902 5902 5902 5902 5902 5903 5902 5902 5902 5902 5902 5902 5902 5902 5902 5901 5901 5901 5901 5901 5902 5902 5902 5902 5902 5902 5902 5902 5902 5902 5902 5902 5902 5902 5902 5902 5902 5903 5903 5903 5903 5903 5904
5903 5903 5903 5903 5903 5903 5903 5903 5903 5903 5903 5902 5902 5902 5902 5902 5902 5902 5902 5902 5902 5903 5903 5903 5903 5903 5903 5903 5903 5903 5903 5903 5903 5903 5903 5903 5903 5903 5904 5904 5904 5904 5904
5904 5904 5904 5904 5904 5904 5903 5903 5903 5903 5903 5903 5903 5903 5903 5903 5903 5903 5903 5903 5903 5903 5903 5904 5904 5904 5904 5904 5904 5904 5904 5904 5904 5904 5904 5904 5904 5904 5904 5905 5905 5905 5905
5905 5905 5905 5905 5905 5904 5904 5903 5903 5903 5903 5903 5903 5903 5903 5903 5903 5903 5904 5904 5904 5904 5904 5904 5905 5905 5905 5905 5905 5905 5905 5905 5905 5905 5905 5905 5905 5905 5905 5906 5906 5906 5906
5906 5906 5906 5905 5905 5905 5904 5904 5904 5904 5903 5903 5903 5903 5903 5903 5904 5904 5904 5904 5905 5905 5905 5905 5906 5905 5906 5906 5906 5906 5906 5906 5906 5905 5905 5905 5906 5906 5906 5906 5907 5907 5907
5907 5907 5906 5906 5906 5905 5905 5904 5904 5904 5904 5903 5903 5903 5903 5904 5904 5904 5904 5905 5905 5906 5906 5906 5906 5906 5906 5907 5907 5907 5907 5907 5906 5906 5906 5906 5906 5907 5907 5907 5907 5907 5907
5908 5907 5907 5906 5906 5905 5905 5904 5904 5904 5904 5903 5903 5904 5904 5904 5904 5904 5905 5905 5906 5906 5906 5907 5907 5907 5907 5907 5907 5908 5908 5908 5908 5908 5907 5907 5907 5907 5907 5907 5907 5907 5907
5909 5908 5907 5906 5906 5905 5905 5904 5903 5903 5903 5903 5903 5903 5903 5904 5904 5904 5905 5905 5906 5906 5907 5907 5907 5908 5908 5908 5908 5908 5908 5908 5908 5908 5908 5908 5908 5908 5908 5908 5907 5907 5907
5909 5908 5907 5906 5906 5905 5904 5904 5903 5903 5903 5903 5903 5903 5903 5904 5904 5905 5905 5906 5906 5906 5907 5907 5908 5908 5908 5908 5908 5908 5909 5909 5909 5909 5908 5908 5908 5908 5908 5908 5908 5907 5907
5909 5908 5907 5906 5906 5905 5904 5904 5903 5903 5903 5903 5903 5903 5903 5903 5904 5905 5905 5906 5906 5906 5907 5907 5908 5908 5908 5908 5909 5909 5909 5908 5908 5908 5908 5908 5908 5908 5908 5908 5907 5907 5907
5909 5908 5907 5906 5905 5905 5904 5903 5903 5903 5902 5902 5903 5902 5903 5903 5904 5904 5905 5905 5905 5906 5907 5907 5908 5908 5908 5908 5908 5909 5908 5908 5908 5908 5908 5908 5908 5908 5908 5907 5907 5907 5907
5910 5908 5907 5906 5905 5904 5904 5903 5903 5902 5902 5902 5902 5902 5903 5903 5903 5904 5905 5905 5905 5906 5906 5907 5907 5907 5908 5908 5908 5908 5908 5908 5908 5908 5907 5907 5907 5907 5907 5907 5906 5906 5906
5910 5909 5907 5906 5905 5904 5903 5903 5902 5902 5902 5902 5901 5901 5902 5902 5902 5903 5904 5904 5904 5905 5905 5906 5906 5906 5907 5907 5907 5907 5907 5907 5907 5906 5906 5906 5906 5906 5906 5906 5905 5905 5905
5910 5909 5907 5906 5905 5904 5903 5902 5901 5901 5901 5900 5900 5900 5901 5901 5901 5902 5902 5903 5903 5904 5904 5904 5905 5905 5905 5905 5906 5906 5906 5906 5905 5904 5904 5904 5904 5904 5904 5904 5904 5904 5903
5910 5909 5907 5905 5904 5903 5902 5901 5901 5900 5899 5899 5899 5898 5899 5899 5900 5900 5901 5901 5901 5902 5902 5903 5903 5903 5904 5904 5904 5904 5904 5904 5904 5903 5903 5902 5902 5902 5902 5901 5901 5901 5901
5910 5908 5906 5905 5904 5902 5902 5900 5900 5899 5898 5898 5897 5897 5897 5897 5898 5899 5899 5899 5899 5900 5900 5900 5901 5901 5901 5901 5902 5902 5902 5901 5901 5901 5900 5900 5900 5899 5899 5899 5899 5898 5898
5909 5907 5906 5904 5903 5901 5900 5899 5898 5897 5897 5896 5896 5896 5896 5896 5897 5897 5897 5898 5898 5898 5898 5898 5899 5898 5898 5898 5899 5898 5898 5898 5897 5897 5897 5897 5897 5896 5896 5896 5895 5894 5894
5908 5906 5904 5903 5901 5900 5898 5897 5896 5896 5895 5895 5895 5895 5895 5895 5895 5896 5896 5896 5896 5896 5896 5896 5896 5896 5895 5895 5895 5895 5894 5894 5894 5894 5894 5893 5893 5893 5892 5892 5891 5890 5890